{"data":{"norad_id":60427,"epoch":"2026-05-24T22:50:48.561216Z","epoch_age_seconds":75108,"freshness":"FRESH","line1":"1 60427U 24144C   26144.95195094  .00000247  00000+0  20470-4 0  9992","line2":"2 60427  53.1598 223.0183 0001121  80.3359 279.7768 15.30196580101022","mean_motion":15.3019658,"eccentricity":0.0001121,"inclination_deg":53.1598,"raan_deg":223.0183,"arg_perigee_deg":80.3359,"mean_anomaly_deg":279.7768,"bstar":2.047e-5,"rev_number":10102,"period_min":94.105556032546,"perigee_km":474.45701903019,"apogee_km":475.99354285358,"semimajor_km":6853.3622809419,"source":"CELESTRAK","updated_at":"2026-05-25T13:38:19.272679Z"}}